EZY235 EBBR-EGKK

Flight info

Callsign EZY235
Flight time N/A
Altitude 26000
Route DENUT L610 TEBRA
Aircraft A20N/M-SDE2E3FGHIRWXY/LB1

Departure

Time 2026-05-07 19:29
Airport Brussels Airport (EBBR)

Arrival

Time N/A
Airport London Gatwick Airport (EGKK)
Time Latitude Longitude Altitude Speed Heading
2026-05-07 19:05 50.90396 4.48539 136 ft 0 kts 155°
2026-05-07 19:18 50.90398 4.48537 136 ft 2 kts 155°
2026-05-07 19:18 50.90412 4.48525 136 ft 2 kts 150°
2026-05-07 19:19 50.90427 4.48511 136 ft 2 kts 144°
2026-05-07 19:19 50.90439 4.48495 136 ft 2 kts 135°
2026-05-07 19:19 50.90450 4.48475 136 ft 2 kts 121°
2026-05-07 19:19 50.90457 4.48452 136 ft 2 kts 101°
2026-05-07 19:20 50.90458 4.48426 136 ft 2 kts 81°
2026-05-07 19:20 50.90454 4.48403 137 ft 1 kts 69°
2026-05-07 19:20 50.90454 4.48402 137 ft 0 kts 69°
2026-05-07 19:21 50.90460 4.48425 136 ft 5 kts 69°
2026-05-07 19:22 50.90480 4.48501 135 ft 10 kts 66°
2026-05-07 19:22 50.90513 4.48616 134 ft 13 kts 66°
2026-05-07 19:22 50.90559 4.48776 126 ft 19 kts 65°
2026-05-07 19:22 50.90616 4.48973 127 ft 21 kts 65°
2026-05-07 19:23 50.90680 4.49196 124 ft 22 kts 65°
2026-05-07 19:23 50.90731 4.49369 127 ft 12 kts 64°
2026-05-07 19:23 50.90762 4.49474 126 ft 9 kts 65°
2026-05-07 19:23 50.90793 4.49577 129 ft 11 kts 65°
2026-05-07 19:24 50.90825 4.49695 129 ft 13 kts 65°
2026-05-07 19:24 50.90912 4.49779 123 ft 14 kts 20°
2026-05-07 19:24 50.90991 4.49870 123 ft 14 kts 37°
2026-05-07 19:24 50.91039 4.49912 122 ft 0 kts 23°
2026-05-07 19:27 50.91048 4.49917 120 ft 5 kts 23°
2026-05-07 19:27 50.91115 4.49947 119 ft 11 kts 344°
2026-05-07 19:27 50.91131 4.49857 123 ft 9 kts 247°
2026-05-07 19:27 50.91130 4.49851 124 ft 0 kts 246°
2026-05-07 19:29 50.91096 4.49733 125 ft 41 kts 246°
2026-05-07 19:29 50.90851 4.48890 133 ft 124 kts 245°
2026-05-07 19:29 50.90426 4.47426 530 ft 148 kts 245°
2026-05-07 19:29 50.90153 4.45878 1384 ft 150 kts 266°
2026-05-07 19:30 50.90177 4.44771 1922 ft 154 kts 278°
2026-05-07 19:30 50.90447 4.42158 2399 ft 202 kts 285°
2026-05-07 19:30 50.90744 4.40695 2757 ft 217 kts 289°
2026-05-07 19:30 50.91239 4.38440 3349 ft 236 kts 287°
2026-05-07 19:31 50.91716 4.35647 3982 ft 257 kts 282°
2026-05-07 19:31 50.92053 4.32902 4841 ft 263 kts 279°
2026-05-07 19:31 50.92391 4.30025 5811 ft 268 kts 285°
2026-05-07 19:31 50.93121 4.27256 6029 ft 272 kts 302°
2026-05-07 19:32 50.94283 4.24876 6235 ft 275 kts 309°
2026-05-07 19:32 50.95501 4.22506 6605 ft 278 kts 309°
2026-05-07 19:32 50.96702 4.20136 6730 ft 276 kts 308°
2026-05-07 19:32 50.97904 4.17742 7210 ft 279 kts 308°
2026-05-07 19:33 50.99111 4.15328 8217 ft 278 kts 308°
2026-05-07 19:33 51.00316 4.12912 9150 ft 281 kts 308°
2026-05-07 19:33 51.01539 4.10458 10037 ft 285 kts 308°
2026-05-07 19:33 51.02802 4.07922 10620 ft 303 kts 308°
2026-05-07 19:34 51.04158 4.05195 10938 ft 326 kts 308°
2026-05-07 19:34 51.05599 4.02296 11468 ft 339 kts 308°
2026-05-07 19:34 51.07069 3.99338 12286 ft 342 kts 308°
2026-05-07 19:34 51.08533 3.96386 13064 ft 346 kts 308°
2026-05-07 19:35 51.10034 3.93357 13816 ft 351 kts 308°
2026-05-07 19:35 51.11553 3.90287 14581 ft 355 kts 308°
2026-05-07 19:35 51.13086 3.87185 15315 ft 358 kts 308°
2026-05-07 19:35 51.14636 3.84045 16009 ft 362 kts 308°
2026-05-07 19:36 51.16200 3.80871 16694 ft 366 kts 308°
2026-05-07 19:36 51.17784 3.77654 17360 ft 370 kts 308°
2026-05-07 19:36 51.19376 3.74415 17999 ft 374 kts 308°
2026-05-07 19:36 51.20986 3.71137 18640 ft 377 kts 308°
2026-05-07 19:37 51.22520 3.67718 19264 ft 381 kts 300°
2026-05-07 19:37 51.23687 3.63900 19853 ft 384 kts 290°
2026-05-07 19:37 51.24426 3.59793 20439 ft 387 kts 281°
2026-05-07 19:37 51.24972 3.55558 21011 ft 391 kts 282°
2026-05-07 19:38 51.25526 3.51370 21564 ft 394 kts 282°
2026-05-07 19:38 51.26106 3.47005 22134 ft 398 kts 282°
2026-05-07 19:38 51.26677 3.42693 22679 ft 401 kts 282°
2026-05-07 19:38 51.27254 3.38314 23205 ft 404 kts 282°
2026-05-07 19:39 51.27826 3.33900 23655 ft 409 kts 281°
2026-05-07 19:39 51.28389 3.29524 23757 ft 409 kts 281°
2026-05-07 19:39 51.28967 3.25007 23856 ft 409 kts 281°
2026-05-07 19:39 51.29535 3.20553 23959 ft 410 kts 281°
2026-05-07 19:40 51.30104 3.16091 24000 ft 410 kts 281°
2026-05-07 19:40 51.30649 3.11796 24000 ft 410 kts 281°
2026-05-07 19:40 51.31236 3.07167 24001 ft 410 kts 281°
2026-05-07 19:40 51.31801 3.02692 24000 ft 410 kts 281°
2026-05-07 19:41 51.32363 2.98227 24000 ft 410 kts 281°
2026-05-07 19:41 51.32923 2.93762 24000 ft 410 kts 281°
2026-05-07 19:41 51.33481 2.89300 24000 ft 410 kts 281°
2026-05-07 19:41 51.34038 2.84831 24000 ft 410 kts 281°
2026-05-07 19:42 51.34592 2.80371 24000 ft 410 kts 281°
2026-05-07 19:42 51.35145 2.75902 24000 ft 410 kts 281°
2026-05-07 19:42 51.35697 2.71433 23991 ft 410 kts 281°
2026-05-07 19:42 51.36250 2.66960 23791 ft 410 kts 281°
2026-05-07 19:43 51.36799 2.62505 23534 ft 407 kts 281°
2026-05-07 19:43 51.37344 2.58071 23294 ft 405 kts 281°
2026-05-07 19:43 51.37885 2.53650 23044 ft 404 kts 281°
2026-05-07 19:43 51.38415 2.49302 22796 ft 402 kts 281°
2026-05-07 19:44 51.38948 2.44918 22547 ft 401 kts 281°
2026-05-07 19:44 51.39480 2.40527 22297 ft 399 kts 281°
2026-05-07 19:44 51.40006 2.36172 22046 ft 398 kts 281°
2026-05-07 19:44 51.40528 2.31829 21797 ft 396 kts 281°
2026-05-07 19:45 51.41047 2.27508 21547 ft 395 kts 281°
2026-05-07 19:45 51.41566 2.23190 21298 ft 393 kts 281°
2026-05-07 19:45 51.42091 2.18898 21046 ft 392 kts 281°
2026-05-07 19:45 51.42615 2.14621 20787 ft 390 kts 281°
2026-05-07 19:46 51.43136 2.10358 20546 ft 389 kts 281°
2026-05-07 19:46 51.43653 2.06110 20308 ft 387 kts 281°
2026-05-07 19:46 51.44165 2.01876 19999 ft 386 kts 281°
2026-05-07 19:46 51.44672 1.97660 19674 ft 384 kts 281°
2026-05-07 19:47 51.45165 1.93467 19351 ft 382 kts 280°
2026-05-07 19:47 51.45650 1.89292 19024 ft 380 kts 280°
2026-05-07 19:47 51.46131 1.85139 18691 ft 378 kts 280°
2026-05-07 19:47 51.46611 1.81005 18374 ft 376 kts 280°
2026-05-07 19:48 51.47089 1.76890 18034 ft 375 kts 280°
2026-05-07 19:48 51.47564 1.72785 17557 ft 373 kts 280°
2026-05-07 19:48 51.48035 1.68710 17059 ft 369 kts 280°
2026-05-07 19:48 51.48456 1.64672 16557 ft 365 kts 275°
2026-05-07 19:49 51.48432 1.60628 16058 ft 362 kts 263°
2026-05-07 19:49 51.47875 1.56694 15556 ft 361 kts 251°
2026-05-07 19:49 51.47002 1.52939 15065 ft 358 kts 250°
2026-05-07 19:49 51.46137 1.49207 14544 ft 355 kts 250°
2026-05-07 19:50 51.45292 1.45537 14336 ft 348 kts 250°
2026-05-07 19:50 51.44441 1.41850 14238 ft 355 kts 249°
2026-05-07 19:50 51.43291 1.38328 14131 ft 353 kts 235°
2026-05-07 19:50 51.41674 1.35420 14031 ft 352 kts 221°
2026-05-07 19:51 51.39762 1.33107 14003 ft 336 kts 216°
2026-05-07 19:51 51.37917 1.30944 14002 ft 325 kts 217°
2026-05-07 19:51 51.36082 1.28777 13995 ft 331 kts 217°
2026-05-07 19:51 51.34234 1.26589 14006 ft 330 kts 217°
2026-05-07 19:52 51.32392 1.24412 13998 ft 329 kts 217°
2026-05-07 19:52 51.30548 1.22234 14003 ft 330 kts 217°
2026-05-07 19:52 51.28704 1.20060 14003 ft 330 kts 217°
2026-05-07 19:52 51.26858 1.17885 14002 ft 330 kts 217°
2026-05-07 19:53 51.25024 1.15728 13998 ft 330 kts 217°
2026-05-07 19:53 51.23161 1.13538 14004 ft 330 kts 217°
2026-05-07 19:53 51.21339 1.11398 13995 ft 330 kts 217°
2026-05-07 19:53 51.19465 1.09200 13997 ft 330 kts 217°
2026-05-07 19:54 51.17639 1.07060 13997 ft 330 kts 217°
2026-05-07 19:54 51.15789 1.04894 14002 ft 330 kts 217°
2026-05-07 19:54 51.13934 1.02724 14000 ft 330 kts 216°
2026-05-07 19:54 51.12077 1.00555 14004 ft 330 kts 216°
2026-05-07 19:55 51.10208 0.98373 13995 ft 330 kts 216°
2026-05-07 19:55 51.08380 0.96243 14002 ft 330 kts 216°
2026-05-07 19:55 51.06576 0.93916 13996 ft 329 kts 225°
2026-05-07 19:55 51.05152 0.91086 13922 ft 327 kts 238°
2026-05-07 19:56 51.04138 0.87934 13624 ft 326 kts 245°
2026-05-07 19:56 51.03185 0.84675 13203 ft 324 kts 245°
2026-05-07 19:56 51.02234 0.81446 12758 ft 322 kts 245°
2026-05-07 19:56 51.01278 0.78230 12322 ft 320 kts 245°
2026-05-07 19:57 51.00328 0.75048 11873 ft 318 kts 245°
2026-05-07 19:57 50.99381 0.71885 11446 ft 316 kts 245°
2026-05-07 19:57 50.98444 0.68765 11225 ft 311 kts 245°
2026-05-07 19:57 50.97526 0.65712 11121 ft 299 kts 244°
2026-05-07 19:58 50.96649 0.62801 11021 ft 291 kts 244°
2026-05-07 19:58 50.95769 0.59883 11000 ft 292 kts 244°
2026-05-07 19:58 50.94884 0.56952 11000 ft 292 kts 244°
2026-05-07 19:58 50.94008 0.54056 11000 ft 292 kts 244°
2026-05-07 19:59 50.93138 0.51184 11000 ft 292 kts 244°
2026-05-07 19:59 50.92252 0.48266 10931 ft 290 kts 244°
2026-05-07 19:59 50.91549 0.45287 10637 ft 289 kts 261°
2026-05-07 19:59 50.91604 0.42131 10240 ft 288 kts 284°
2026-05-07 20:00 50.91969 0.40119 9983 ft 287 kts 287°
2026-05-07 20:00 50.92733 0.36081 9455 ft 285 kts 286°
2026-05-07 20:00 50.93293 0.33085 9206 ft 278 kts 286°
2026-05-07 20:00 50.93842 0.30113 9117 ft 286 kts 286°
2026-05-07 20:01 50.94458 0.27120 9022 ft 284 kts 293°
2026-05-07 20:01 50.95561 0.24620 8997 ft 272 kts 319°
2026-05-07 20:01 50.97120 0.23044 8828 ft 263 kts 331°
2026-05-07 20:01 50.98723 0.21655 8483 ft 262 kts 331°
2026-05-07 20:02 51.00294 0.20296 8137 ft 260 kts 331°
2026-05-07 20:02 51.01877 0.18921 7771 ft 255 kts 329°
2026-05-07 20:02 51.02800 0.17761 7510 ft 248 kts 309°
2026-05-07 20:02 51.03549 0.15350 7289 ft 244 kts 279°
2026-05-07 20:03 51.03496 0.12679 7088 ft 242 kts 261°
2026-05-07 20:03 51.03233 0.10007 7003 ft 242 kts 261°
2026-05-07 20:03 51.02973 0.07400 7003 ft 242 kts 261°
2026-05-07 20:03 51.02708 0.04752 7003 ft 242 kts 261°
2026-05-07 20:04 51.02444 0.02107 6994 ft 242 kts 261°
2026-05-07 20:04 51.02179 -0.00536 7003 ft 242 kts 261°
2026-05-07 20:04 51.01665 -0.03064 7002 ft 242 kts 237°
2026-05-07 20:04 51.00455 -0.04899 7010 ft 243 kts 212°
2026-05-07 20:05 50.98983 -0.06305 6999 ft 243 kts 211°
2026-05-07 20:05 50.97528 -0.07672 6997 ft 243 kts 211°
2026-05-07 20:05 50.96070 -0.09042 6997 ft 243 kts 211°
2026-05-07 20:05 50.94630 -0.10445 6997 ft 243 kts 219°
2026-05-07 20:06 50.93610 -0.12533 7002 ft 242 kts 249°
2026-05-07 20:06 50.93400 -0.15155 7007 ft 242 kts 278°
2026-05-07 20:06 50.93698 -0.17790 7000 ft 243 kts 281°
2026-05-07 20:06 50.94021 -0.20431 6886 ft 244 kts 281°
2026-05-07 20:07 50.94344 -0.23061 6541 ft 245 kts 281°
2026-05-07 20:07 50.94670 -0.25724 6173 ft 247 kts 281°
2026-05-07 20:07 50.94997 -0.28395 5780 ft 245 kts 281°
2026-05-07 20:07 50.95323 -0.31059 5393 ft 240 kts 281°
2026-05-07 20:08 50.95632 -0.33581 5047 ft 232 kts 281°
2026-05-07 20:08 50.95931 -0.36032 4790 ft 221 kts 281°
2026-05-07 20:08 50.96217 -0.38372 4562 ft 210 kts 281°
2026-05-07 20:08 50.96484 -0.40555 4416 ft 196 kts 281°
2026-05-07 20:09 50.96738 -0.42628 4294 ft 192 kts 281°
2026-05-07 20:09 50.97004 -0.44806 4046 ft 190 kts 281°
2026-05-07 20:09 50.97244 -0.46770 3809 ft 190 kts 281°
2026-05-07 20:10 50.97759 -0.50876 3303 ft 188 kts 288°
2026-05-07 20:10 50.98521 -0.52546 3056 ft 190 kts 328°
2026-05-07 20:10 50.99725 -0.53367 2931 ft 189 kts 340°
2026-05-07 20:10 51.00978 -0.54046 2927 ft 188 kts 341°
2026-05-07 20:11 51.02215 -0.54711 2924 ft 189 kts 341°
2026-05-07 20:11 51.03457 -0.55378 2925 ft 189 kts 341°
2026-05-07 20:11 51.04702 -0.56046 2925 ft 189 kts 341°
2026-05-07 20:11 51.05987 -0.56375 2927 ft 189 kts
2026-05-07 20:12 51.07175 -0.55531 2926 ft 191 kts 47°
2026-05-07 20:12 51.08013 -0.53885 2922 ft 191 kts 51°
2026-05-07 20:12 51.08849 -0.52241 2924 ft 191 kts 51°
2026-05-07 20:12 51.09654 -0.50589 2909 ft 185 kts 62°
2026-05-07 20:13 51.10110 -0.48790 2945 ft 169 kts 72°
2026-05-07 20:13 51.10462 -0.47021 2927 ft 170 kts 73°
2026-05-07 20:13 51.10808 -0.45197 2925 ft 170 kts 73°
2026-05-07 20:13 51.11136 -0.43396 2925 ft 170 kts 74°
2026-05-07 20:14 51.11511 -0.41640 2861 ft 171 kts 68°
2026-05-07 20:14 51.11939 -0.39874 2619 ft 171 kts 73°
2026-05-07 20:14 51.12213 -0.38063 2404 ft 167 kts 79°
2026-05-07 20:14 51.12442 -0.36234 2186 ft 169 kts 77°
2026-05-07 20:15 51.12691 -0.34432 1962 ft 166 kts 78°
2026-05-07 20:15 51.12939 -0.32629 1738 ft 167 kts 77°
2026-05-07 20:15 51.13187 -0.30828 1521 ft 166 kts 77°
2026-05-07 20:15 51.13425 -0.29100 1316 ft 152 kts 77°
2026-05-07 20:16 51.13647 -0.27490 1102 ft 141 kts 77°
2026-05-07 20:16 51.13863 -0.25925 919 ft 140 kts 77°
2026-05-07 20:16 51.14067 -0.24449 734 ft 138 kts 77°
2026-05-07 20:16 51.14278 -0.22929 551 ft 138 kts 77°
2026-05-07 20:17 51.14486 -0.21428 366 ft 137 kts 77°
2026-05-07 20:17 51.14691 -0.19950 213 ft 134 kts 77°
2026-05-07 20:17 51.14857 -0.18739 209 ft 82 kts 77°